This demonstration page uses our WeatherBlox Daily Observations layout. Learn more.

Left ArrowRight Arrow

41.12389, -100.76542

Hourly Observations for March 2, 2020

Temp ( °F °C ) Dew Point ( °F °C ) Humidity (%) Winds ( mph kmh ) Pressure ( in mb ) Visibility ( mi km ) Precip ( " mm )
12:06 am 00:06 Cloudy with Light Snow 33 0.6 26 -3.3 75 75 NNE 12 19 30.10 1019 9 14 0.00 0.00
12:53 am 00:53 Cloudy 32 0 26 -3.3 79 79 N 7 11 30.03 1017 10 16 0.00 0.00
1:53 am 01:53 Cloudy with Light Snow 32 0 27 -2.8 82 82 N 6 9 30.03 1017 5 8 0.00 0.00
2:28 am 02:28 Mostly Cloudy 29 -1.7 26 -3.3 89 89 N 3 6 30.11 1020 10 16 0.00 0.00
2:50 am 02:50 Mostly Cloudy 28 -2 27 -3 93 93 NW 3 6 30.11 1020 10 16 0.01 0.25
2:53 am 02:53 Mostly Cloudy 29 -1.7 26 -3.3 89 89 WNW 3 6 30.00 1016 10 16 0.01 0.25
3:53 am 03:53 Mostly Clear 26 -3.3 22 -5.6 84 84 NW 5 7 29.98 1015 10 16 0.00 0.00
4:53 am 04:53 Mostly Cloudy 25 -3.9 22 -5.6 88 88 NNW 6 9 29.98 1015 10 16 0.00 0.00
5:53 am 05:53 Cloudy 24 -4.4 22 -5.6 91 91 N 3 6 29.97 1015 10 16 0.00 0.00
6:53 am 06:53 Partly Cloudy 25 -3.9 21 -6.1 85 85 Calm 29.95 1014 9 14 0.00 0.00
7:53 am 07:53 Mostly Sunny 22 -5.6 20 -6.7 92 92 Calm 29.93 1014 10 16 0.00 0.00
8:53 am 08:53 Mostly Sunny 30 -1.1 25 -3.9 82 82 NNW 3 6 29.92 1013 10 16 0.00 0.00
9:53 am 09:53 Mostly Cloudy 37 2.8 26 -3.3 65 65 WSW 15 24 29.90 1013 10 16 0.00 0.00
10:53 am 10:53 Partly Cloudy 40 4.4 28 -2.2 63 63 WSW 17 28 29.87 1012 10 16 0.00 0.00
11:01 am 11:01 Mostly Cloudy 39 3.9 28 -2.2 65 65 WSW 18 30 29.89 1012 10 16 0.00 0.00
11:33 am 11:33 Partly Cloudy 41 5 29 -1.7 62 62 WSW 20 31 29.86 1011 10 16 0.00 0.00
11:50 am 11:50 Mostly Cloudy 39 4 28 -2 65 65 W 17 28 29.86 1011 10 16 0.00 0.00
11:53 am 11:53 Mostly Cloudy 41 5 28 -2.2 60 60 W 20 31 29.84 1011 10 16 0.00 0.00
12:53 pm 12:53 Cloudy 43 6.1 27 -2.8 53 53 WSW 18 30 29.78 1009 10 16 0.00 0.00
1:10 pm 13:10 Mostly Cloudy 45 7.2 28 -2.2 52 52 WSW 16 26 29.74 1007 10 16 0.00 0.00
1:53 pm 13:53 Partly Cloudy 46 7.8 29 -1.7 51 51 WSW 23 37 29.71 1006 10 16 0.00 0.00
2:53 pm 14:53 Mostly Cloudy 50 10 28 -2.2 43 43 W 16 26 29.68 1005 10 16 0.00 0.00
3:53 pm 15:53 Sunny 55 12.8 27 -2.8 34 34 W 22 35 29.64 1004 10 16 0.00 0.00
4:53 pm 16:53 Sunny 52 11.1 14 -10 22 22 NW 20 31 29.65 1004 10 16 0.00 0.00
5:53 pm 17:53 Partly Cloudy 50 10 18 -7.8 28 28 NW 15 24 29.67 1005 10 16 0.00 0.00
6:53 pm 18:53 Mostly Clear 41 5 20 -6.7 43 43 NNW 8 13 29.71 1006 10 16 0.00 0.00
7:53 pm 19:53 Partly Cloudy 35 1.7 18 -7.8 50 50 NW 7 11 29.75 1008 10 16 0.00 0.00
8:53 pm 20:53 Cloudy 36 2.2 21 -6.1 55 55 NW 5 7 29.75 1008 10 16 0.00 0.00
9:53 pm 21:53 Clear 32 0 20 -6.7 61 61 NNW 6 9 29.78 1008 10 16 0.00 0.00
10:53 pm 22:53 Clear 27 -2.8 19 -7.2 72 72 N 6 9 29.81 1010 10 16 0.00 0.00
11:53 pm 23:53 Clear 29 -1.7 19 -7.2 66 66 NW 8 13 29.83 1010 10 16 0.00 0.00

Powered by AerisWeather